Location: Unspecified
(14.1179°N, 0.0000°E)
Time: 18:09:45
(UTC+00:00)

SEEDS - Visible Passes

Search period start: 04 April 2026 00:00
Search period end: 14 April 2026 00:00
Orbit: 475 x 477 km, 97.8° (Epoch: 28 March)

Date Brightness Start Highest point End Pass type
(mag) Time Alt. Az. Time Alt. Az. Time Alt. Az.
4 Apr ? 04:48:12 10° NNE 04:51:29 37° E 04:54:45 10° S visible
5 Apr ? 04:22:26 10° ENE 04:24:16 14° E 04:26:04 10° SE visible
6 Apr ? 05:26:44 10° N 05:30:06 43° WNW 05:33:28 10° SSW visible
7 Apr ? 04:59:24 10° NNE 05:02:52 58° E 05:06:20 10° S visible
8 Apr ? 04:32:55 10° NE 04:35:32 20° E 04:38:10 10° SSE visible
10 Apr ? 05:10:21 10° NNE 05:13:51 90° ENE 05:17:23 10° SSW visible
11 Apr ? 04:43:21 10° NE 04:46:25 28° E 04:49:31 10° SSE visible
12 Apr ? 04:18:17 10° E 04:18:55 10° E 04:19:32 10° ESE visible
13 Apr ? 05:21:01 10° N 05:24:28 59° WNW 05:27:56 10° SSW visible
